| time (UTC) | temp F | wind direction | speed MPH | gust MPH | rain 1hr in | rain 24hr in | rain mn in | humidity % | barometer mb |
| 20260506044517 | 65 | 227 | 3.0 | 13.0 | 0.00 | 0.00 | 0.00 | 61 | 1008.7 |
| 20260506043014 | 65 | 231 | 3.0 | 14.0 | 0.00 | 0.00 | 0.00 | 60 | 1008.8 |
| 20260506041554 | 65 | 279 | 3.0 | 13.0 | 0.00 | 0.00 | 0.00 | 59 | 1008.9 |
| 20260506040049 | 66 | 242 | 7.0 | 12.0 | 0.00 | 0.00 | 0.00 | 59 | 1008.8 |
| 20260506034529 | 66 | 269 | 7.0 | 16.0 | 0.00 | 0.00 | 0.00 | 58 | 1008.7 |
| 20260506033027 | 66 | 251 | 8.0 | 13.0 | 0.00 | 0.00 | 0.00 | 57 | 1008.7 |
| 20260506031513 | 67 | 212 | 5.0 | 15.0 | 0.00 | 0.00 | 0.00 | 56 | 1008.7 |
| 20260506030007 | 67 | 236 | 5.0 | 20.0 | 0.00 | 0.00 | 0.00 | 56 | 1008.7 |
| 20260506024545 | 67 | 221 | 2.0 | 7.0 | 0.00 | 0.00 | 0.00 | 57 | 1008.7 |
| 20260506023044 | 67 | 248 | 4.0 | 10.0 | 0.00 | 0.00 | 0.00 | 56 | 1008.8 |
| 20260506021526 | 67 | 217 | 4.0 | 7.0 | 0.00 | 0.00 | 0.00 | 56 | 1008.9 |
| 20260506020023 | 68 | 180 | 3.0 | 11.0 | 0.00 | 0.00 | 0.00 | 55 | 1009.0 |
| 20260506014505 | 68 | 247 | 6.0 | 10.0 | 0.00 | 0.00 | 0.00 | 55 | 1008.9 |
| 20260506013002 | 68 | 265 | 8.0 | 18.0 | 0.00 | 0.00 | 0.00 | 55 | 1008.6 |
| 20260506011543 | 68 | 208 | 6.0 | 15.0 | 0.00 | 0.00 | 0.00 | 54 | 1008.0 |
| 20260506010038 | 69 | 226 | 5.0 | 13.0 | 0.00 | 0.00 | 0.00 | 53 | 1007.9 |
| 20260506004517 | 70 | 216 | 8.0 | 18.0 | 0.00 | 0.00 | 0.00 | 52 | 1007.6 |
| 20260506003013 | 70 | 251 | 7.0 | 15.0 | 0.00 | 0.00 | 0.00 | 51 | 1007.3 |
| 20260506001559 | 71 | 173 | 9.0 | 18.0 | 0.00 | 0.00 | 0.00 | 50 | 1007.0 |
| 20260506000050 | 72 | 250 | 9.0 | 17.0 | 0.00 | 0.00 | 0.00 | 49 | 1006.7 |
| 20260505234550 | 72 | 201 | 6.0 | 13.0 | 0.00 | 0.00 | 0.00 | 48 | 1006.3 |
| 20260505233021 | 73 | 183 | 8.0 | 19.0 | 0.00 | 0.00 | 0.00 | 48 | 1006.2 |
| 20260505231504 | 74 | 173 | 7.0 | 17.0 | 0.00 | 0.00 | 0.00 | 47 | 1006.1 |
| 20260505230058 | 74 | 242 | 7.0 | 25.0 | 0.00 | 0.00 | 0.00 | 46 | 1005.9 |
| 20260505224535 | 75 | 244 | 9.0 | 18.0 | 0.00 | 0.00 | 0.00 | 45 | 1005.4 |
| 20260505223035 | 76 | 199 | 11.0 | 21.0 | 0.00 | 0.00 | 0.00 | 44 | 1005.2 |
| 20260505221513 | 76 | 212 | 10.0 | 23.0 | 0.00 | 0.00 | 0.00 | 43 | 1005.1 |
| 20260505220012 | 76 | 203 | 8.0 | 20.0 | 0.00 | 0.00 | 0.00 | 43 | 1004.9 |
| 20260505214616 | 77 | 185 | 11.0 | 22.0 | 0.00 | 0.00 | 0.00 | 43 | 1004.8 |
| 20260505213054 | 77 | 202 | 9.0 | 22.0 | 0.00 | 0.00 | 0.00 | 42 | 1004.7 |
| 20260505211611 | 78 | 177 | 7.0 | 24.0 | 0.00 | 0.00 | 0.00 | 42 | 1004.5 |
| 20260505210051 | 79 | 152 | 16.0 | 27.0 | 0.00 | 0.00 | 0.00 | 41 | 1004.3 |
| 20260505204546 | 80 | 186 | 11.0 | 22.0 | 0.00 | 0.00 | 0.00 | 40 | 1004.1 |
| 20260505203046 | 80 | 188 | 11.0 | 22.0 | 0.00 | 0.00 | 0.00 | 39 | 1004.3 |
| 20260505201544 | 80 | 213 | 11.0 | 21.0 | 0.00 | 0.00 | 0.00 | 39 | 1004.3 |
| 20260505200051 | 81 | 205 | 15.0 | 30.0 | 0.00 | 0.00 | 0.00 | 39 | 1004.3 |
| 20260505194522 | 80 | 200 | 11.0 | 31.0 | 0.00 | 0.00 | 0.00 | 40 | 1004.4 |
| 20260505193019 | 81 | 169 | 9.0 | 20.0 | 0.00 | 0.00 | 0.00 | 40 | 1004.7 |
| 20260505191617 | 80 | 213 | 8.0 | 23.0 | 0.00 | 0.00 | 0.00 | 41 | 1004.9 |
| 20260505184557 | 80 | 199 | 15.0 | 23.0 | 0.00 | 0.00 | 0.00 | 41 | 1005.3 |
| 20260505183048 | 82 | 261 | 8.0 | 27.0 | 0.00 | 0.00 | 0.00 | 36 | 1005.6 |
| 20260505181543 | 81 | 252 | 15.0 | 27.0 | 0.00 | 0.00 | 0.00 | 37 | 1005.7 |
| 20260505180041 | 81 | 234 | 12.0 | 22.0 | 0.00 | 0.00 | 0.00 | 37 | 1005.8 |
| 20260505174543 | 81 | 225 | 9.0 | 21.0 | 0.00 | 0.00 | 0.00 | 37 | 1006.0 |
| 20260505173044 | 81 | 248 | 11.0 | 21.0 | 0.00 | 0.00 | 0.00 | 37 | 1006.4 |
| 20260505171537 | 80 | 247 | 8.0 | 17.0 | 0.00 | 0.00 | 0.00 | 37 | 1006.7 |
| 20260505170036 | 79 | 204 | 9.0 | 18.0 | 0.00 | 0.00 | 0.00 | 39 | 1006.9 |
| 20260505164531 | 79 | 246 | 8.0 | 18.0 | 0.00 | 0.00 | 0.00 | 40 | 1007.2 |
| 20260505163015 | 78 | 231 | 4.0 | 12.0 | 0.00 | 0.00 | 0.00 | 42 | 1007.5 |
| 20260505161513 | 76 | 295 | 8.0 | 14.0 | 0.00 | 0.00 | 0.00 | 44 | 1008.0 |
| 20260505153006 | 73 | 232 | 6.0 | 15.0 | 0.00 | 0.00 | 0.00 | 48 | 1008.5 |
| 20260505151508 | 72 | 248 | 7.0 | 16.0 | 0.00 | 0.00 | 0.00 | 49 | 1008.6 |
| 20260505124558 | 65 | 243 | 7.0 | 14.0 | 0.00 | 0.00 | 0.00 | 57 | 1009.0 |
| 20260505123032 | 64 | 284 | 8.0 | 16.0 | 0.00 | 0.00 | 0.00 | 59 | 1009.0 |
| 20260505121531 | 63 | 190 | 6.0 | 15.0 | 0.00 | 0.00 | 0.00 | 60 | 1008.8 |
| 20260505120013 | 63 | 221 | 6.0 | 10.0 | 0.00 | 0.00 | 0.00 | 61 | 1008.8 |
| 20260505114513 | 62 | 191 | 4.0 | 13.0 | 0.00 | 0.00 | 0.00 | 62 | 1008.8 |
| 20260505113057 | 60 | 265 | 5.0 | 14.0 | 0.00 | 0.00 | 0.00 | 64 | 1009.0 |
| 20260505111554 | 59 | 253 | 3.0 | 11.0 | 0.00 | 0.00 | 0.00 | 66 | 1009.0 |
| 20260505101525 | 55 | 248 | 1.0 | 7.0 | 0.00 | 0.00 | 0.00 | 69 | 1008.9 |
| 20260505100100 | 54 | 194 | 1.0 | 6.0 | 0.00 | 0.00 | 0.00 | 70 | 1008.9 |
| 20260505100004 | 54 | 166 | 1.0 | 8.0 | 0.00 | 0.00 | 0.00 | 70 | 1008.8 |
| 20260505094603 | 54 | 198 | 2.0 | 5.0 | 0.00 | 0.00 | 0.00 | 70 | 1008.9 |
| 20260505093044 | 54 | 229 | 2.0 | 6.0 | 0.00 | 0.00 | 0.00 | 69 | 1009.0 |
| 20260505091539 | 54 | 188 | 3.0 | 8.0 | 0.00 | 0.00 | 0.00 | 69 | 1009.0 |
| 20260505090021 | 55 | 264 | 3.0 | 7.0 | 0.00 | 0.00 | 0.00 | 68 | 1009.1 |
| 20260505084531 | 55 | 215 | 4.0 | 8.0 | 0.00 | 0.00 | 0.00 | 67 | 1009.1 |
| 20260505083059 | 55 | 211 | 4.0 | 7.0 | 0.00 | 0.00 | 0.00 | 66 | 1009.1 |
| 20260505081559 | 55 | 213 | 2.0 | 8.0 | 0.00 | 0.00 | 0.00 | 66 | 1009.2 |
| 20260505080043 | 54 | 262 | 1.0 | 6.0 | 0.00 | 0.00 | 0.00 | 67 | 1009.4 |
| 20260505074541 | 55 | 196 | 1.0 | 5.0 | 0.00 | 0.00 | 0.00 | 66 | 1009.4 |
| 20260505073032 | 55 | 211 | 1.0 | 4.0 | 0.00 | 0.00 | 0.00 | 66 | 1009.5 |
| 20260505071520 | 55 | 236 | 1.0 | 5.0 | 0.00 | 0.00 | 0.00 | 65 | 1009.6 |
| 20260505070101 | 56 | 195 | 0.0 | 4.0 | 0.00 | 0.00 | 0.00 | 63 | 1009.6 |
| 20260505064601 | 57 | 210 | 1.0 | 4.0 | 0.00 | 0.00 | 0.00 | 62 | 1009.6 |
| 20260505063108 | 57 | 215 | 2.0 | 6.0 | 0.00 | 0.00 | 0.00 | 61 | 1009.5 |
| 20260505061545 | 57 | 254 | 4.0 | 7.0 | 0.00 | 0.00 | 0.00 | 60 | 1009.5 |
| 20260505060041 | 57 | 266 | 3.0 | 7.0 | 0.00 | 0.00 | 0.00 | 60 | 1009.5 |
| 20260505054541 | 58 | 270 | 4.0 | 8.0 | 0.00 | 0.00 | 0.00 | 60 | 1009.6 |
| 20260505053047 | 58 | 215 | 3.0 | 9.0 | 0.00 | 0.00 | 0.00 | 59 | 1009.6 |
| 20260505051538 | 58 | 251 | 6.0 | 12.0 | 0.00 | 0.00 | 0.00 | 58 | 1009.7 |